Regional Weather Roundup
Issued by NWS Newport/Morehead, NC

Current Version | Previous Version | Text Only | Print | Product List | Glossary On
Versions: 1 2 3 4 5 6 7 8 9 10 11 12 13 14 15 16 17 18 19 20 21 22 23 24 25 26 27 28 29 30 31 32 33 34 35 36 37 38 39 40 41 42 43 44 45 46 47 48 49 50
000
ASUS42 KMHX 050212
RWRMHX
WEATHER ROUNDUP FOR EASTERN NORTH CAROLINA
NATIONAL WEATHER SERVICE NEWPORT/MOREHEAD CITY NC
1000 PM EDT MON MAY 04 2015

NOTE: "FAIR" INDICATES FEW OR NO CLOUDS BELOW 12,000 FEET
WITH NO SIGNIFICANT WEATHER AND/OR OBSTRUCTIONS TO VISIBILITY

NCZ015>017-031-032-045>047-102-103-050300-
NORTH COAST

CITY           SKY/WX    TMP DP  RH WIND       PRES   REMARKS
EDENTON        CLEAR     68  56  64 S8        30.32R
ELIZABETH CITY CLEAR     67  54  63 S9        30.32R
KITTY HAWK     CLEAR     66  56  69 SW5       30.32R
MANTEO         CLEAR     66  58  76 SW10      30.34R

$$

NCZ045>047-081-094-103-104-050300-
CENTRAL COAST

CITY           SKY/WX    TMP DP  RH WIND       PRES   REMARKS
FRISCO         CLEAR     65  56  72 SW7       30.35R
SWANQUARTER      N/A     68 N/A N/A S9G15     30.30S

$$

NCZ095-097-098-100-101-050300-
SOUTHERN COAST

CITY           SKY/WX    TMP DP  RH WIND       PRES   REMARKS
BEAUFORT       CLEAR     66  57  72 S7        30.35R
CEDAR ISLAND     N/A     66 N/A N/A S3        30.39S
JACKSONVILLE   CLEAR     63  57  81 CALM      30.34R
PINEY ISLAND   CLEAR    N/A N/A N/A S6        30.35R
WILMINGTON     CLEAR     65  56  72 S3        30.34R


$$

NCZ011>013-027>030-043-044-078>080-089-090>093-098-050300-
COASTAL PLAIN

CITY           SKY/WX    TMP DP  RH WIND       PRES   REMARKS
AHOSKIE        CLEAR     67  52  59 S9        30.31R
CLINTON        CLEAR     66  55  67 S3        30.34R
ELIZABETHTOWN  CLEAR     66  55  66 S3        30.33R
GOLDSBORO      NOT AVBL
GREENVILLE     CLEAR     68  52  56 S8        30.33R
HAVELOCK       CLEAR     65  56  72 S5        30.35R
KENANSVILLE    CLEAR     63  52  67 CALM      30.35R
KINSTON        CLEAR     66  52  59 S7        30.34R
NEW BERN       CLEAR     61  52  72 S3        30.35R
RICHLANDS      CLEAR     61  50  67 CALM      30.35R
ROCKY MOUNT    CLEAR     70  54  56 S9        30.31R
WASHINGTON     CLEAR     67  51  56 S5        30.34R
WHITEVILLE     CLEAR     62  56  79 CALM      30.33R

$$

AMZ130-135-150-152-154-156-158-170-250-252-270-ANZ085-086-088-633-658-670-050300-
MARINE OBSERVATIONS

STATION/POSITION TIME  TEMP    WIND        PRES    WAVE   SWELL
                       AIR SEA DIR/SP/G            HT/PER HT/PER
                 (UTC) (F)     (DEG/KT/KT) (MB)    (FT/S) (FT/S)
CHESAPEAKE LIGHT 0200   65     200/ 24/ 26 1025.7
64 E VA BEACH    0150   64 62  200/ 14/ 16 1026.1    3/ 9   3/ 9
DUCK             0100   69 53  190/ 13/ 15 1025.1
2 E DUCK         0111      58                N/A     3/11   2/11
OREGON INLET     0100      70  180/ 10/ 12 1026.8
13E OREGON INLT  0200      60                N/A     2/ 9   2/11
HATTERAS CG      0100   69 68  190/  4/  7 1026.8
DIAMOND BUOY     0150   74 77  190/ 14/ 16 1027.6    4/11   3/11
CAPE LOOKOUT     0200   69     180/  6/  7 1027.4
BEAUFORT LAB     0100   68 67  180/  6/  8 1026.4
27 SE WRIGHTSVLE 0100   69 72  170/  8/ 10   N/A
5 SE WRIGHTSVLE  0108   69 69  180/  6/  8 1026.8
225 S CAPE HAT   0150   69 70  100/ 16/ 19 1027.5    5/10   3/10
41 SE CHARLESTON 0150   73 74  100/ 14/ 17 1025.8    4/10   2/10

$$



USA.gov is the U.S. government's official web portal to all federal, state and local government web resources and services.